Location: Unspecified
(0.0000°N, 0.0000°E)
Time: 17:46:10
(UTC+00:00)

S-56A Canister/Altair - Visible Passes

Search period start: 28 July 2015 00:00
Search period end: 07 August 2015 00:00
Orbit: 637 x 2498 km, 38.9° (Epoch: 26 July)

Date Brightness Start Highest point End Pass type
(mag) Time Alt. Az. Time Alt. Az. Time Alt. Az.
28 Jul 10.1 03:08:46 24° N 03:08:46 24° N 03:11:44 10° NNE visible
29 Jul 10.5 02:38:08 19° NNE 02:38:08 19° NNE 02:40:01 10° NNE visible
30 Jul 10.9 02:07:29 13° NNE 02:07:29 13° NNE 02:08:10 10° NNE visible
30 Jul 11.5 21:04:13 10° S 21:04:29 10° S 21:04:29 10° S visible
31 Jul 10.7 03:34:13 10° NNW 03:34:13 10° NNW 03:34:28 10° NNW visible
31 Jul 11.4 20:31:57 10° S 20:33:59 12° S 20:33:59 12° S visible
01 Aug 10.8 03:03:28 12° NNW 03:03:28 12° NNW 03:04:15 10° N visible
01 Aug 11.3 20:00:08 10° S 20:03:32 12° SSE 20:03:32 12° SSE visible
02 Aug 10.9 02:32:40 11° N 02:32:40 11° N 02:33:08 10° N visible
02 Aug 11.3 19:30:11 10° SSE 19:30:44 10° SSE 19:32:26 10° SSE visible
02 Aug 11.4 21:28:28 10° SSW 21:30:38 15° SSW 21:30:38 15° SSW visible
03 Aug 11.1 20:55:45 10° SSW 21:00:21 20° S 21:00:21 20° S visible
04 Aug 10.9 20:23:09 10° SSW 20:30:10 23° S 20:30:10 23° S visible
04 Aug 11.6 22:27:20 10° SW 22:27:39 11° SW 22:27:39 11° SW visible
05 Aug 10.8 19:50:43 10° SSW 20:00:06 23° SSE 20:00:06 23° SSE visible
05 Aug 11.2 21:54:16 10° SW 21:57:36 20° SW 21:57:36 20° SW visible
06 Aug 10.8 19:18:28 10° S 19:27:23 20° SSE 19:30:10 19° SE visible
06 Aug 10.8 21:21:19 10° SW 21:27:41 31° SSW 21:27:41 31° SSW visible
